Date String (YYYY-MM-DD hh:mm:ss) UTC,Instrument flags,Ambient pressure (hPa),Sample flow (lpm),Bypass flow (lpm),Sample temperature (°C),Ambient temperature (°C),ASC tube jacket temperature (°C),LED temperature (°C),Box temperature (°C),Sample RH (%),Span deviation,Mass concentration (μg/m³),Mass concentration (μg/m³),Mass concentration (μg/m³)
DateTimeUTC,F1_M11,P_M11,Q1_M11,Q2_M11,T1_M11,T2_M11,T3_M11,T4_M11,T5_M11,U1_M11,ZSPAN_M11,X2_M11,X0_M11,X1_M11
2022-07-07 09:00:00,,0828.7,5.01,0.00,31.6,29.3,00.0,40.2,32.8,35.0,-001.5,0009.30,0014.34,0008.41
2022-07-07 09:01:00,,0828.7,5.00,0.00,31.8,29.4,00.0,40.2,32.9,34.7,-001.5,0009.46,0014.47,0008.57
2022-07-07 09:02:00,,0828.7,5.00,0.00,31.9,29.4,00.0,40.2,32.9,34.5,-001.3,0009.53,0014.26,0008.65
2022-07-07 09:03:00,,0828.7,5.01,0.00,31.9,29.4,00.0,40.2,32.9,34.5,-001.3,0009.57,0014.42,0008.69
2022-07-07 09:04:00,,0828.7,5.00,0.00,31.9,29.4,00.0,40.2,32.9,34.4,-001.4,0009.63,0014.75,0008.75
2022-07-07 09:05:00,,0828.7,5.00,0.00,31.9,29.4,00.0,40.3,32.9,34.3,-001.3,0009.77,0014.99,0008.88
2022-07-07 09:06:00,,0828.7,5.00,0.00,31.9,29.4,00.0,40.3,32.9,34.3,-001.5,0009.87,0015.21,0008.98
2022-07-07 09:07:00,,0828.8,5.01,0.00,31.9,29.3,00.0,40.3,32.8,34.4,-001.4,0009.98,0015.44,0009.08
2022-07-07 09:08:00,,0828.8,4.99,0.00,31.8,28.5,00.0,40.2,32.7,34.4,-001.2,0010.06,0015.37,0009.17
2022-07-07 09:09:00,,0828.7,5.01,0.00,31.8,27.9,00.0,40.1,32.6,34.7,-001.1,0010.10,0015.38,0009.21
2022-07-07 09:10:00,,0828.7,5.00,0.00,31.6,27.8,00.0,40.1,32.5,35.0,-000.8,0010.11,0015.37,0009.24
2022-07-07 09:11:00,,0828.7,4.99,0.00,31.6,27.9,00.0,40.1,32.5,35.2,-000.8,0010.06,0016.15,0009.24
2022-07-07 09:12:00,,0828.7,5.01,0.00,31.8,28.0,00.0,40.1,32.6,34.8,-000.6,0010.03,0016.53,0009.20
2022-07-07 09:13:00,,0828.7,5.00,0.00,31.9,28.1,00.0,40.0,32.6,34.4,-000.6,0010.01,0016.78,0009.16
2022-07-07 09:14:00,,0828.7,5.00,0.00,32.0,28.2,00.0,40.0,32.5,34.3,-000.4,0009.99,0016.72,0009.12
2022-07-07 09:15:00,,0828.7,4.99,0.00,32.0,28.3,00.0,40.0,32.5,34.3,-000.4,0009.97,0016.51,0009.09
2022-07-07 09:16:00,,0828.7,5.00,0.00,32.0,28.5,00.0,40.1,32.5,34.2,-000.4,0009.94,0016.90,0009.06
2022-07-07 09:17:00,,0828.7,5.01,0.00,31.9,28.6,00.0,40.1,32.5,34.1,-000.2,0009.86,0016.66,0009.01
2022-07-07 09:18:00,,0828.6,5.00,0.00,31.9,28.7,00.0,40.1,32.5,34.2,-000.3,0009.82,0016.75,0008.95
2022-07-07 09:19:00,,0829.1,5.00,0.00,31.8,28.7,00.0,40.1,32.5,34.4,-000.5,0009.77,0017.80,0008.88
2022-07-07 09:20:00,,0829.2,5.01,0.00,31.8,28.8,00.0,40.1,32.5,34.6,-000.8,0009.74,0017.95,0008.82
2022-07-07 09:21:00,,0829.2,5.00,0.00,31.8,28.9,00.0,40.1,32.5,34.6,-000.8,0009.67,0017.97,0008.73
2022-07-07 09:22:00,,0829.1,5.00,0.00,31.7,28.9,00.0,40.2,32.5,34.7,-000.9,0009.59,0016.85,0008.65
2022-07-07 09:23:00,,0829.2,5.00,0.00,31.7,29.0,00.0,40.2,32.6,34.7,-000.9,0009.57,0016.28,0008.63
2022-07-07 09:24:00,,0829.0,5.00,0.00,31.7,29.0,00.0,40.1,32.6,34.9,-001.0,0009.63,0016.49,0008.65
2022-07-07 09:25:00,,0828.7,4.99,0.00,31.6,29.1,00.0,40.1,32.6,35.0,-001.1,0009.72,0016.68,0008.69
2022-07-07 09:26:00,,0829.0,5.01,0.00,31.7,29.1,00.0,40.1,32.6,35.1,-001.2,0009.75,0016.79,0008.71
2022-07-07 09:27:00,,0828.6,5.01,0.00,31.8,29.1,00.0,40.1,32.7,34.7,-001.3,0009.79,0016.45,0008.68
2022-07-07 09:28:00,,0828.8,5.00,0.00,31.9,29.2,00.0,40.1,32.8,34.7,-001.4,0009.85,0016.93,0008.65
2022-07-07 09:29:00,,0828.6,4.99,0.00,31.9,29.2,00.0,40.1,32.7,34.5,-001.4,0009.84,0016.85,0008.66
2022-07-07 09:30:00,,0828.6,5.01,0.00,31.9,29.2,00.0,40.2,32.7,34.5,-001.1,0009.89,0016.07,0008.68
2022-07-07 09:31:00,,0828.6,5.01,0.00,31.9,29.2,00.0,40.2,32.7,34.4,-000.8,0009.95,0016.20,0008.71
2022-07-07 09:32:00,,0828.8,4.99,0.00,31.8,29.3,00.0,40.2,32.8,34.4,-001.1,0010.03,0016.45,0008.77
2022-07-07 09:33:00,,0829.0,5.00,0.00,31.8,29.3,00.0,40.2,32.7,34.4,-001.1,0010.13,0016.68,0008.85
2022-07-07 09:34:00,,0828.9,4.99,0.00,31.8,29.3,00.0,40.2,32.7,34.5,-001.0,0010.18,0016.81,0008.90
2022-07-07 09:35:00,,0828.8,4.99,0.00,31.8,29.3,00.0,40.2,32.7,34.5,-001.1,0010.20,0016.54,0008.93
2022-07-07 09:36:00,,0828.9,5.01,0.00,31.7,29.3,00.0,40.2,32.8,34.6,-000.9,0010.13,0016.56,0008.92
2022-07-07 09:37:00,,0828.8,5.00,0.00,31.7,29.4,00.0,40.2,32.7,34.7,-000.9,0010.16,0016.63,0008.93
2022-07-07 09:38:00,,0829.0,4.99,0.00,31.7,29.4,00.0,40.2,32.7,34.8,-000.9,0010.19,0017.04,0008.95
2022-07-07 09:39:00,,0829.0,5.00,0.00,31.6,29.4,00.0,40.2,32.8,34.8,-001.0,0010.25,0017.14,0009.01
2022-07-07 09:40:00,,0829.1,5.00,0.00,31.6,29.4,00.0,40.2,32.8,34.7,-001.1,0010.25,0017.03,0009.02
2022-07-07 09:41:00,,0829.0,5.01,0.00,31.6,29.4,00.0,40.2,32.8,34.7,-001.4,0010.17,0016.84,0008.97
2022-07-07 09:42:00,,0829.1,5.00,0.00,31.6,29.4,00.0,40.2,32.8,34.7,-001.8,0010.11,0017.08,0008.92
2022-07-07 09:43:00,,0829.0,5.01,0.00,31.5,29.4,00.0,40.2,32.8,34.7,-001.9,0010.01,0017.21,0008.84
2022-07-07 09:44:00,,0828.9,5.00,0.00,31.5,28.6,00.0,40.1,32.7,34.5,-001.8,0009.88,0017.23,0008.71
2022-07-07 09:45:00,,0828.8,5.01,0.00,31.5,28.0,00.0,40.0,32.6,34.6,-002.0,0009.83,0017.13,0008.62
2022-07-07 09:46:00,,0828.5,4.99,0.00,31.3,27.8,00.0,40.0,32.4,34.9,-002.1,0009.77,0016.85,0008.56
2022-07-07 09:47:00,,0828.5,5.01,0.00,31.3,27.8,00.0,40.0,32.3,35.2,-002.2,0009.78,0016.81,0008.55
2022-07-07 09:48:00,,0828.5,4.99,0.00,31.4,27.9,00.0,39.9,32.4,35.0,-002.2,0009.70,0016.87,0008.48
2022-07-07 09:49:00,,0828.5,5.01,0.00,31.6,28.0,00.0,39.9,32.5,34.5,-002.1,0009.57,0016.54,0008.40
2022-07-07 09:50:00,,0828.5,5.00,0.00,31.7,28.1,00.0,39.9,32.5,34.3,-001.9,0009.40,0015.99,0008.29
2022-07-07 09:51:00,,0828.8,4.99,0.00,31.8,28.3,00.0,39.9,32.5,34.4,-001.8,0009.40,0015.99,0008.25
2022-07-07 09:52:00,,0829.0,5.00,0.00,31.8,28.4,00.0,39.9,32.4,34.6,-001.6,0009.44,0016.30,0008.26
2022-07-07 09:53:00,,0829.0,5.01,0.00,31.8,28.5,00.0,39.9,32.4,34.4,-001.2,0009.46,0016.30,0008.31
2022-07-07 09:54:00,,0829.0,5.01,0.00,31.7,28.6,00.0,39.9,32.4,34.4,-000.9,0009.49,0016.22,0008.35
2022-07-07 09:55:00,,0829.0,5.00,0.00,31.7,28.7,00.0,40.0,32.4,34.6,-000.6,0009.58,0016.27,0008.43
2022-07-07 09:56:00,,0829.2,5.00,0.00,31.7,28.7,00.0,40.0,32.4,34.7,-000.7,0009.66,0016.79,0008.49
2022-07-07 09:57:00,,0828.9,5.00,0.00,31.6,28.8,00.0,40.0,32.4,34.8,-000.3,0009.71,0017.04,0008.52
2022-07-07 09:58:00,,0828.8,4.99,0.00,31.6,28.9,00.0,40.0,32.5,34.9,-000.3,0009.73,0017.67,0008.52
2022-07-07 09:59:00,,0828.8,5.00,0.00,31.6,28.9,00.0,40.0,32.5,35.0,-000.3,0009.82,0018.35,0008.55
